Roseau, MN

6:53 PM CDT on August 19, 2017 (GMT -0500)
Roseau Municipal-Billberg

Weather History for KROX - October, 2012

Change the Weather History Date:

Wednesday, October 17, 2012

  Actual Average Record
Temperature  
Mean Temperature 52 °F -  
Max Temperature 55 °F 50 °F 76 °F (1963)
Min Temperature 50 °F 28 °F 8 °F (1976)
Degree Days  
Heating Degree Days 12    
Growing Degree Days 2 (Base 50)    
Moisture  
Dew Point 45 °F    
Average Humidity 78    
Maximum Humidity 82    
Minimum Humidity 62    
Precipitation  
Precipitation 0.51 in - - ()
Sea Level Pressure  
Sea Level Pressure 29.13 in    
Wind  
Wind Speed 6 mph (ESE)    
Max Wind Speed 15 mph    
Max Gust Speed -    
Visibility 8 miles    
Events Rain    
Averages and records for this station are not official NWS values.
T = Trace of Precipitation, MM = Missing Value Source: NWS Daily Summary

Daily Weather History Graph

Daily Weather History Graph

Search for Another Location

Airport or City:

Trip Planner

Search our weather history database for the weather conditions in past years. The results will help you decide how hot, cold, wet, or windy it might be!

Date:

Astronomy

Oct. 17, 2012 Rise Set
Actual Time 7:47 AM CDT 6:28 PM CDT
Civil Twilight 7:15 AM CDT 7:00 PM CDT
Nautical Twilight 6:38 AM CDT 7:36 PM CDT
Astronomical Twilight 6:01 AM CDT 8:13 PM CDT
Moon 10:38 AM CDT (10/17) 7:48 PM CDT (10/17)
Length of Visible Light 11h 45m
Length of Day
10h 41m
Waxing Crescent, 7% of the Moon is Illuminated
Oct 17
Waxing Crescent
Oct 21
First Quarter
Oct 29
Full
Nov 6
Last Quarter
Nov 13
New

Hourly Weather History & Observations

Time (CDT) Temp. Dew Point Humidity Pressure Visibility Wind Dir Wind Speed Gust Speed Precip Events Conditions
12:15 AM 51.8 °F 42.8 °F 71% 29.27 in 10.0 mi Calm Calm - N/A   Clear
12:34 AM 51.8 °F 42.8 °F 71% 29.27 in 10.0 mi SE 3.5 mph - N/A   Clear
12:54 AM 51.8 °F 42.8 °F 71% 29.26 in 10.0 mi SE 4.6 mph - N/A   Clear
1:14 AM 53.6 °F 41.0 °F 62% 29.26 in 10.0 mi SE 5.8 mph - N/A   Clear
1:34 AM 51.8 °F 41.0 °F 67% 29.25 in 10.0 mi SSE 5.8 mph - N/A   Clear
1:54 AM 51.8 °F 41.0 °F 67% 29.25 in 10.0 mi SSE 5.8 mph - N/A   Clear
2:12 AM 51.8 °F 42.8 °F 71% 29.24 in 10.0 mi SE 5.8 mph - N/A   Clear
2:34 AM 51.8 °F 42.8 °F 71% 29.24 in 10.0 mi SSE 5.8 mph - N/A   Clear
2:54 AM 51.8 °F 42.8 °F 71% 29.24 in 10.0 mi South 4.6 mph - N/A   Clear
3:15 AM 53.6 °F 44.6 °F 72% 29.23 in 10.0 mi SSE 5.8 mph - N/A   Clear
3:34 AM 53.6 °F 42.8 °F 67% 29.22 in 10.0 mi SE 4.6 mph - N/A   Clear
3:54 AM 53.6 °F 44.6 °F 72% 29.21 in 10.0 mi SSE 3.5 mph - N/A   Clear
4:15 AM 53.6 °F 44.6 °F 72% 29.20 in 10.0 mi SSE 3.5 mph - N/A   Clear
4:34 AM 53.6 °F 44.6 °F 72% 29.19 in 10.0 mi SE 4.6 mph - N/A   Scattered Clouds
4:54 AM 55.4 °F 44.6 °F 67% 29.19 in 10.0 mi SE 5.8 mph - N/A   Clear
5:14 AM 53.6 °F 44.6 °F 72% 29.20 in 10.0 mi Calm Calm - N/A   Clear
5:34 AM 53.6 °F 44.6 °F 72% 29.20 in 10.0 mi Calm Calm - N/A   Scattered Clouds
5:54 AM 53.6 °F 44.6 °F 72% 29.19 in 10.0 mi SSE 5.8 mph - N/A   Scattered Clouds
6:14 AM 53.6 °F 44.6 °F 72% 29.19 in 10.0 mi SE 6.9 mph - N/A   Clear
6:34 AM 53.6 °F 44.6 °F 72% 29.18 in 10.0 mi ESE 4.6 mph - N/A   Scattered Clouds
6:54 AM 53.6 °F 44.6 °F 72% 29.17 in 10.0 mi SE 5.8 mph - N/A   Scattered Clouds
7:14 AM 53.6 °F 44.6 °F 72% 29.17 in 10.0 mi SE 4.6 mph - N/A   Scattered Clouds
7:34 AM 51.8 °F 44.6 °F 76% 29.16 in 10.0 mi Calm Calm - N/A   Scattered Clouds
7:54 AM 51.8 °F 44.6 °F 76% 29.16 in 10.0 mi East 4.6 mph - N/A   Scattered Clouds
8:14 AM 51.8 °F 44.6 °F 76% 29.16 in 10.0 mi ESE 4.6 mph - N/A   Scattered Clouds
8:34 AM 51.8 °F 44.6 °F 76% 29.16 in 10.0 mi SE 6.9 mph - N/A   Scattered Clouds
8:54 AM 51.8 °F 44.6 °F 76% 29.16 in 10.0 mi SE 4.6 mph - N/A   Light Drizzle
9:14 AM 51.8 °F 46.4 °F 82% 29.16 in 10.0 mi SE 4.6 mph - N/A   Scattered Clouds
9:34 AM 51.8 °F 46.4 °F 82% 29.15 in 10.0 mi East 5.8 mph - N/A Rain Light Rain
9:54 AM 51.8 °F 46.4 °F 82% 29.15 in 10.0 mi ESE 6.9 mph - N/A   Drizzle
10:14 AM 51.8 °F 46.4 °F 82% 29.15 in 10.0 mi ESE 6.9 mph - N/A Rain Light Rain
10:34 AM 51.8 °F 46.4 °F 82% 29.15 in 10.0 mi ESE 6.9 mph - N/A Rain Light Rain
10:54 AM 51.8 °F 46.4 °F 82% 29.15 in 10.0 mi East 8.1 mph - N/A   Scattered Clouds
11:14 AM 51.8 °F 46.4 °F 82% 29.14 in 10.0 mi East 8.1 mph - N/A   Scattered Clouds
11:54 AM 51.8 °F 46.4 °F 82% 29.13 in 7.0 mi East 9.2 mph - N/A   Light Drizzle
12:14 PM 51.8 °F 46.4 °F 82% 29.12 in 10.0 mi East 8.1 mph - 0.01 in Rain Light Rain
12:34 PM 51.8 °F 46.4 °F 82% 29.12 in 7.0 mi East 6.9 mph - 0.03 in Rain Rain
12:54 PM 51.8 °F 46.4 °F 82% 29.11 in 5.0 mi East 6.9 mph - 0.05 in Rain Light Rain
1:15 PM 51.8 °F 46.4 °F 82% 29.10 in 5.0 mi East 8.1 mph - 0.03 in Rain Rain
1:34 PM 51.8 °F 46.4 °F 82% 29.09 in 5.0 mi East 9.2 mph - 0.06 in Rain Light Rain
1:54 PM 51.8 °F 46.4 °F 82% 29.08 in 5.0 mi East 8.1 mph - 0.07 in Rain Light Rain
2:15 PM 51.8 °F 46.4 °F 82% 29.08 in 5.0 mi NE 6.9 mph - 0.03 in Rain Rain
2:34 PM 51.8 °F 46.4 °F 82% 29.07 in 5.0 mi NE 9.2 mph - 0.05 in Rain Rain
2:54 PM 51.8 °F 46.4 °F 82% 29.06 in 5.0 mi NE 12.7 mph - 0.06 in Rain Rain
3:15 PM 51.8 °F 46.4 °F 82% 29.06 in 5.0 mi ENE 11.5 mph - 0.04 in Rain Light Rain
3:34 PM 51.8 °F 46.4 °F 82% 29.05 in 5.0 mi ENE 11.5 mph - 0.08 in Rain Rain
3:54 PM 51.8 °F 46.4 °F 82% 29.05 in 7.0 mi ENE 13.8 mph - 0.14 in Rain Light Rain
4:14 PM 51.8 °F 46.4 °F 82% 29.04 in 7.0 mi ENE 10.4 mph - 0.04 in Rain Light Rain
4:34 PM 50.0 °F 44.6 °F 82% 29.04 in 7.0 mi ENE 12.7 mph - 0.08 in Rain Rain
4:54 PM 50.0 °F 44.6 °F 82% 29.04 in 10.0 mi ENE 15.0 mph - 0.14 in Rain Light Rain
5:14 PM 50.0 °F 44.6 °F 82% 29.04 in 7.0 mi ENE 12.7 mph - 0.01 in   Drizzle
5:34 PM 50.0 °F 44.6 °F 82% 29.04 in 7.0 mi ENE 11.5 mph - 0.02 in   Light Drizzle
5:54 PM 50.0 °F 44.6 °F 82% 29.03 in 7.0 mi ENE 9.2 mph - 0.03 in   Light Drizzle
6:14 PM 50.0 °F 44.6 °F 82% 29.03 in 5.0 mi ENE 10.4 mph - N/A Rain Light Rain
6:34 PM 50.0 °F 44.6 °F 82% 29.03 in 4.0 mi ENE 9.2 mph - N/A   Haze
6:54 PM 50.0 °F 44.6 °F 82% 29.03 in 4.0 mi ENE 6.9 mph - N/A   Haze
7:14 PM 50.0 °F 44.6 °F 82% 29.03 in 3.0 mi ENE 4.6 mph - N/A Rain Light Rain
7:34 PM 50.0 °F 44.6 °F 82% 29.03 in 4.0 mi ENE 5.8 mph - N/A   Haze
7:54 PM 50.0 °F 44.6 °F 82% 29.03 in 3.0 mi ENE 5.8 mph - 0.01 in   Haze
8:14 PM 50.0 °F 44.6 °F 82% 29.03 in 2.5 mi East 4.6 mph - N/A   Haze
8:34 PM 51.8 °F 46.4 °F 82% 29.04 in 2.0 mi ESE 5.8 mph - N/A Rain Rain
8:55 PM 51.8 °F 46.4 °F 82% 29.04 in 3.0 mi ESE 5.8 mph - N/A   Light Drizzle
9:14 PM 51.8 °F 46.4 °F 82% 29.04 in 2.5 mi ESE 6.9 mph - N/A   Haze
9:34 PM 51.8 °F 46.4 °F 82% 29.05 in 5.0 mi East 6.9 mph - N/A   Haze
9:55 PM 51.8 °F 46.4 °F 82% 29.06 in 7.0 mi East 6.9 mph - N/A   Mostly Cloudy
10:14 PM 51.8 °F 46.4 °F 82% 29.06 in 1.8 mi ESE 9.2 mph - N/A   Haze
10:34 PM 51.8 °F 46.4 °F 82% 29.07 in 5.0 mi ESE 9.2 mph - N/A   Haze
10:55 PM 51.8 °F 46.4 °F 82% 29.07 in 10.0 mi ESE 10.4 mph - N/A   Overcast
11:14 PM 50.0 °F 44.6 °F 82% 29.08 in 10.0 mi ESE 10.4 mph - N/A   Overcast
11:34 PM 50.0 °F 44.6 °F 82% 29.08 in 3.0 mi SE 11.5 mph - N/A   Haze
11:55 PM 50.0 °F 44.6 °F 82% 29.08 in 5.0 mi SE 10.4 mph - 0.01 in   Haze